Погода в Сигнахи

Грузия     41°37′08″N   45°55′21″E
темп.,
°C
ветер,
м/с
пор.,
м/с
влажн.,
%
обл.,
%
осадки,
мм/ч
давл.,
гПа
погр.,
м
23 июня, ср
ср2301:00+23всв11210 0.0 101311
04:00+21сз11273 0.0 101311
07:00+24з11270 0.0 101329
10:00+31вюв13160 0.0 1013945
13:00+34ююв69120 0.0 10121799
16:00+35юв69120 0.0 10111892
19:00+34юв48160 0.0 1010760
22:00+27вюв36220 0.0 101296
24 июня, чт
чт2401:00+23св11290 0.0 101213
04:00+22с22290 0.0 101311
07:00+25ссз11290 0.0 101346
10:00+31юв36185 0.0 10121277
13:00+34ююв69140 0.0 10121662
16:00+36ююв68113 0.0 10102172
19:00+34юв7101420 0.0 10091025
22:00+26юв242071 0.0 101272
25 июня, пт
пт2501:00+24всв3523100 0.0 1012108
04:00+21сз112565 0.0 101211
07:00+24всв11240 0.0 101230
10:00+31юв36143 0.0 10111180
13:00+34юв610124 0.0 10101585
16:00+36ююв48100 0.0 10082041
19:00+35юв59120 0.0 10071048
22:00+28юв48200 0.0 1009209
26 июня, сб
сб2601:00+24с332586 0.0 101042
04:00+23сз22275 0.0 100912
07:00+26ю1128100 0.0 101040
10:00+31ююв352095 0.0 10101196
13:00+34ююв5818100 0.0 10081704
16:00+37юв7101497 0.0 10062609
19:00+35юв8121683 0.0 10051926
22:00+30юв71621100 0.0 1008685
27 июня, вс
вс2701:00+27ссз2326100 0.0 100933
04:00+25ююз113061 0.0 100911
07:00+26юз223546 0.1 101169
10:00+32вюв3723100 0.1 10111504
13:00+36ююв61117100 0.0 10092337
16:00+37юв10111493 0.0 10073128
19:00+35юв8121683 0.0 10072582
22:00+28ююв51330100 0.2 1011360